| time (UTC) | temp F | wind direction | speed MPH | gust MPH | rain 1hr in | rain 24hr in | rain mn in | humidity % | barometer mb |
| 20260506051038 | 76 | 169 | 5.0 | 10.0 | 0.00 | 0.00 | 0.00 | 89 | 1008.1 |
| 20260506045016 | 76 | 153 | 5.0 | 9.0 | 0.00 | 0.00 | 0.00 | 89 | 1008.1 |
| 20260506044015 | 76 | 141 | 4.0 | 8.0 | 0.00 | 0.00 | 0.00 | 89 | 1008.2 |
| 20260506043016 | 76 | 166 | 3.0 | 6.0 | 0.00 | 0.00 | 0.00 | 89 | 1008.1 |
| 20260506042016 | 76 | 161 | 4.0 | 8.0 | 0.00 | 0.00 | 0.00 | 89 | 1008.1 |
| 20260506041016 | 77 | 175 | 4.0 | 8.0 | 0.00 | 0.00 | 0.00 | 89 | 1007.9 |
| 20260506040016 | 77 | 166 | 4.0 | 7.0 | 0.00 | 0.00 | 0.00 | 88 | 1007.9 |
| 20260506035016 | 77 | 148 | 5.0 | 10.0 | 0.00 | 0.00 | 0.00 | 88 | 1007.9 |
| 20260506034017 | 77 | 157 | 4.0 | 8.0 | 0.00 | 0.00 | 0.00 | 88 | 1007.6 |
| 20260506033017 | 77 | 159 | 5.0 | 8.0 | 0.00 | 0.00 | 0.00 | 87 | 1007.4 |
| 20260506032017 | 77 | 158 | 4.0 | 7.0 | 0.00 | 0.00 | 0.00 | 87 | 1007.4 |
| 20260506031017 | 78 | 158 | 5.0 | 10.0 | 0.00 | 0.00 | 0.00 | 86 | 1007.2 |
| 20260506030037 | 78 | 151 | 4.0 | 9.0 | 0.00 | 0.00 | 0.00 | 86 | 1007.0 |
| 20260506025018 | 78 | 146 | 4.0 | 9.0 | 0.00 | 0.00 | 0.00 | 85 | 1006.8 |
| 20260506024018 | 79 | 139 | 4.0 | 8.0 | 0.00 | 0.00 | 0.00 | 84 | 1006.7 |
| 20260506023018 | 79 | 149 | 4.0 | 9.0 | 0.00 | 0.00 | 0.00 | 83 | 1006.5 |
| 20260506022018 | 80 | 152 | 5.0 | 11.0 | 0.00 | 0.00 | 0.00 | 82 | 1006.5 |
| 20260506021015 | 80 | 147 | 4.0 | 9.0 | 0.00 | 0.00 | 0.00 | 81 | 1006.3 |
| 20260506020036 | 81 | 162 | 5.0 | 9.0 | 0.00 | 0.00 | 0.00 | 80 | 1006.2 |
| 20260506015016 | 82 | 162 | 4.0 | 12.0 | 0.00 | 0.00 | 0.00 | 78 | 1006.2 |
| 20260506014016 | 82 | 138 | 4.0 | 8.0 | 0.00 | 0.00 | 0.00 | 76 | 1005.9 |
| 20260506013016 | 82 | 145 | 2.0 | 7.0 | 0.00 | 0.00 | 0.00 | 74 | 1005.9 |
| 20260506012016 | 83 | 128 | 3.0 | 6.0 | 0.00 | 0.00 | 0.00 | 74 | 1005.7 |
| 20260506011016 | 83 | 105 | 3.0 | 4.0 | 0.00 | 0.00 | 0.00 | 73 | 1005.7 |
| 20260506010017 | 83 | 135 | 4.0 | 8.0 | 0.00 | 0.00 | 0.00 | 73 | 1005.5 |
| 20260506005017 | 83 | 145 | 2.0 | 5.0 | 0.00 | 0.00 | 0.00 | 73 | 1005.5 |
| 20260506004016 | 83 | 124 | 3.0 | 6.0 | 0.00 | 0.00 | 0.00 | 73 | 1005.5 |
| 20260506003017 | 84 | 146 | 3.0 | 6.0 | 0.00 | 0.00 | 0.00 | 72 | 1005.4 |
| 20260506002017 | 84 | 144 | 2.0 | 5.0 | 0.00 | 0.00 | 0.00 | 71 | 1005.4 |
| 20260506001017 | 84 | 149 | 3.0 | 6.0 | 0.00 | 0.00 | 0.00 | 71 | 1005.3 |
| 20260506000017 | 84 | 169 | 4.0 | 8.0 | 0.00 | 0.00 | 0.00 | 71 | 1005.2 |
| 20260505235018 | 85 | 152 | 5.0 | 9.0 | 0.00 | 0.00 | 0.00 | 70 | 1005.1 |
| 20260505234038 | 84 | 153 | 5.0 | 10.0 | 0.00 | 0.00 | 0.00 | 70 | 1005.0 |
| 20260505233018 | 84 | 185 | 4.0 | 7.0 | 0.00 | 0.00 | 0.00 | 69 | 1004.9 |
| 20260505232018 | 85 | 163 | 5.0 | 7.0 | 0.00 | 0.00 | 0.00 | 69 | 1005.0 |
| 20260505231015 | 85 | 161 | 4.0 | 9.0 | 0.00 | 0.00 | 0.00 | 68 | 1004.8 |
| 20260505230016 | 85 | 177 | 5.0 | 9.0 | 0.00 | 0.00 | 0.00 | 69 | 1004.8 |
| 20260505225036 | 84 | 192 | 5.0 | 10.0 | 0.00 | 0.00 | 0.00 | 69 | 1005.0 |
| 20260505224016 | 84 | 151 | 4.0 | 7.0 | 0.00 | 0.00 | 0.00 | 69 | 1005.1 |
| 20260505223036 | 85 | 177 | 5.0 | 10.0 | 0.00 | 0.00 | 0.00 | 69 | 1005.1 |
| 20260505222016 | 85 | 149 | 3.0 | 9.0 | 0.00 | 0.00 | 0.00 | 69 | 1005.1 |
| 20260505221016 | 85 | 192 | 6.0 | 9.0 | 0.00 | 0.00 | 0.00 | 69 | 1005.1 |
| 20260505220036 | 84 | 198 | 5.0 | 8.0 | 0.00 | 0.00 | 0.00 | 69 | 1005.3 |
| 20260505215017 | 84 | 187 | 6.0 | 10.0 | 0.00 | 0.00 | 0.00 | 69 | 1005.4 |
| 20260505214057 | 84 | 156 | 5.0 | 10.0 | 0.00 | 0.00 | 0.00 | 69 | 1005.4 |
| 20260505213017 | 84 | 177 | 5.0 | 9.0 | 0.00 | 0.00 | 0.00 | 70 | 1005.6 |
| 20260505212017 | 83 | 191 | 8.0 | 12.0 | 0.00 | 0.00 | 0.00 | 70 | 1005.8 |
| 20260505211017 | 83 | 174 | 5.0 | 9.0 | 0.00 | 0.00 | 0.00 | 71 | 1005.9 |
| 20260505210038 | 83 | 180 | 6.0 | 10.0 | 0.00 | 0.00 | 0.00 | 69 | 1006.1 |
| 20260505205018 | 83 | 199 | 7.0 | 11.0 | 0.00 | 0.00 | 0.00 | 70 | 1006.2 |
| 20260505204018 | 82 | 193 | 6.0 | 10.0 | 0.00 | 0.00 | 0.00 | 71 | 1006.4 |
| 20260505203018 | 82 | 191 | 5.0 | 11.0 | 0.00 | 0.00 | 0.00 | 72 | 1006.5 |
| 20260505202015 | 82 | 178 | 5.0 | 9.0 | 0.00 | 0.00 | 0.00 | 72 | 1006.7 |
| 20260505201016 | 82 | 184 | 5.0 | 8.0 | 0.00 | 0.00 | 0.00 | 73 | 1006.8 |
| 20260505200055 | 81 | 212 | 6.0 | 10.0 | 0.00 | 0.00 | 0.00 | 74 | 1006.7 |
| 20260505195016 | 81 | 198 | 7.0 | 13.0 | 0.00 | 0.00 | 0.00 | 74 | 1006.9 |
| 20260505194036 | 81 | 193 | 5.0 | 8.0 | 0.00 | 0.00 | 0.00 | 75 | 1007.0 |
| 20260505193016 | 80 | 167 | 4.0 | 6.0 | 0.00 | 0.00 | 0.00 | 77 | 1007.1 |
| 20260505170515 | 75 | 197 | 7.0 | 12.0 | 0.00 | 0.00 | 0.00 | 85 | 1008.4 |
| 20260505165516 | 74 | 204 | 5.0 | 11.0 | 0.00 | 0.00 | 0.00 | 87 | 1008.3 |
| 20260505164537 | 74 | 224 | 6.0 | 10.0 | 0.00 | 0.00 | 0.00 | 88 | 1008.4 |
| 20260505163517 | 74 | 224 | 8.0 | 11.0 | 0.00 | 0.00 | 0.00 | 88 | 1008.4 |
| 20260505162517 | 74 | 197 | 8.0 | 12.0 | 0.00 | 0.00 | 0.00 | 89 | 1008.4 |
| 20260505161537 | 73 | 194 | 9.0 | 15.0 | 0.00 | 0.00 | 0.00 | 89 | 1008.3 |
| 20260505160538 | 73 | 212 | 9.0 | 13.0 | 0.00 | 0.00 | 0.00 | 89 | 1008.3 |
| 20260505152515 | 72 | 205 | 8.0 | 12.0 | 0.00 | 0.00 | 0.00 | 91 | 1008.3 |
| 20260505151515 | 72 | 204 | 6.0 | 9.0 | 0.00 | 0.00 | 0.00 | 91 | 1008.3 |
| 20260505150515 | 71 | 221 | 6.0 | 10.0 | 0.00 | 0.00 | 0.00 | 92 | 1008.4 |
| 20260505140517 | 70 | 205 | 9.0 | 15.0 | 0.00 | 0.00 | 0.00 | 94 | 1008.1 |
| 20260505124518 | 70 | 193 | 9.0 | 14.0 | 0.00 | 0.00 | 0.00 | 94 | 1007.8 |
| 20260505123515 | 70 | 197 | 7.0 | 15.0 | 0.00 | 0.00 | 0.00 | 94 | 1007.7 |
| 20260505122515 | 70 | 192 | 9.0 | 15.0 | 0.00 | 0.00 | 0.00 | 94 | 1007.3 |
| 20260505121515 | 70 | 188 | 10.0 | 14.0 | 0.00 | 0.00 | 0.00 | 94 | 1007.3 |
| 20260505120516 | 70 | 193 | 9.0 | 15.0 | 0.00 | 0.00 | 0.00 | 94 | 1007.3 |
| 20260505115516 | 70 | 200 | 9.0 | 15.0 | 0.00 | 0.00 | 0.00 | 94 | 1007.2 |
| 20260505114536 | 70 | 189 | 11.0 | 15.0 | 0.00 | 0.00 | 0.00 | 94 | 1007.1 |
| 20260505113516 | 70 | 196 | 10.0 | 14.0 | 0.00 | 0.00 | 0.00 | 94 | 1007.1 |
| 20260505112518 | 70 | 195 | 9.0 | 16.0 | 0.00 | 0.00 | 0.00 | 94 | 1007.0 |
| 20260505111516 | 70 | 192 | 10.0 | 15.0 | 0.00 | 0.00 | 0.00 | 94 | 1007.0 |
| 20260505110517 | 70 | 192 | 9.0 | 14.0 | 0.00 | 0.00 | 0.00 | 94 | 1007.1 |
| 20260505101537 | 70 | 205 | 13.0 | 19.0 | 0.00 | 0.00 | 0.00 | 93 | 1007.1 |
| 20260505100518 | 70 | 204 | 10.0 | 15.0 | 0.00 | 0.00 | 0.00 | 93 | 1007.3 |
| 20260505095600 | 70 | 208 | 9.0 | 15.0 | 0.00 | 0.00 | 0.00 | 93 | 1007.3 |
| 20260505094515 | 69 | 202 | 11.0 | 18.0 | 0.00 | 0.00 | 0.00 | 93 | 1007.2 |
| 20260505093515 | 69 | 201 | 11.0 | 16.0 | 0.00 | 0.00 | 0.00 | 94 | 1007.3 |
| 20260505092516 | 69 | 198 | 10.0 | 14.0 | 0.00 | 0.00 | 0.00 | 94 | 1007.4 |
| 20260505091516 | 69 | 201 | 8.0 | 13.0 | 0.00 | 0.00 | 0.00 | 95 | 1007.7 |
| 20260505090516 | 69 | 193 | 9.0 | 13.0 | 0.00 | 0.00 | 0.00 | 95 | 1007.5 |
| 20260505085516 | 69 | 193 | 9.0 | 14.0 | 0.00 | 0.00 | 0.00 | 95 | 1007.4 |
| 20260505084556 | 68 | 190 | 11.0 | 16.0 | 0.00 | 0.00 | 0.00 | 95 | 1007.6 |
| 20260505083516 | 68 | 195 | 9.0 | 14.0 | 0.00 | 0.00 | 0.00 | 95 | 1007.7 |
| 20260505082518 | 68 | 193 | 9.0 | 13.0 | 0.00 | 0.00 | 0.00 | 95 | 1007.8 |
| 20260505081516 | 68 | 196 | 8.0 | 12.0 | 0.00 | 0.00 | 0.00 | 95 | 1007.9 |
| 20260505080517 | 68 | 195 | 7.0 | 10.0 | 0.00 | 0.00 | 0.00 | 94 | 1008.1 |
| 20260505075517 | 68 | 192 | 7.0 | 11.0 | 0.00 | 0.00 | 0.00 | 94 | 1008.0 |
| 20260505074517 | 68 | 191 | 8.0 | 13.0 | 0.00 | 0.00 | 0.00 | 94 | 1008.4 |
| 20260505073517 | 69 | 195 | 8.0 | 12.0 | 0.00 | 0.00 | 0.00 | 94 | 1008.4 |
| 20260505072538 | 69 | 198 | 8.0 | 12.0 | 0.00 | 0.00 | 0.00 | 93 | 1008.6 |
| 20260505071519 | 69 | 192 | 9.0 | 12.0 | 0.00 | 0.00 | 0.00 | 93 | 1008.8 |
| 20260505070518 | 69 | 186 | 9.0 | 15.0 | 0.00 | 0.00 | 0.00 | 93 | 1008.9 |
| 20260505065518 | 69 | 193 | 8.0 | 13.0 | 0.00 | 0.00 | 0.00 | 93 | 1009.0 |
| 20260505064515 | 69 | 196 | 8.0 | 13.0 | 0.00 | 0.00 | 0.00 | 93 | 1009.1 |
| 20260505063535 | 69 | 191 | 6.0 | 9.0 | 0.00 | 0.00 | 0.00 | 93 | 1009.2 |
| 20260505062515 | 69 | 191 | 7.0 | 13.0 | 0.00 | 0.00 | 0.00 | 93 | 1009.1 |
| 20260505061516 | 69 | 190 | 7.0 | 11.0 | 0.00 | 0.00 | 0.00 | 92 | 1009.2 |
| 20260505060516 | 69 | 192 | 6.0 | 10.0 | 0.00 | 0.00 | 0.00 | 92 | 1009.4 |
| 20260505055536 | 69 | 187 | 7.0 | 12.0 | 0.00 | 0.00 | 0.00 | 92 | 1009.4 |
| 20260505054516 | 69 | 192 | 9.0 | 13.0 | 0.00 | 0.00 | 0.00 | 91 | 1009.3 |